Hourly Data Report for October 01, 2014

All times are specified in Local Standard Time (LST). Add 1 hour to adjust for Daylight Saving Time where and when it is observed.

BAKER LAKE A
NUNAVUT

64°17'56.000" N
96°04'40.000" W
18.60 m
2300503
71926
YBK

Download Data

Hourly Data (October 2014)
Hourly Data Report for October 1, 2014
Temp Definition
°C
Dew Point Temp Definition
°C
Rel Hum Definition
%
Wind Dir Definition
10's deg

Wind Spd Definition
km/h
Visibility Definition
km
Stn Press Definition
kPa
Hmdx Definition


Wind Chill Definition


Weather Definition


TIME
00:00 Legend Double Dagger -4.3 -6.2 87 8 30 24.1 101.64   -12 Cloudy
01:00 Legend Double Dagger -4.8 -6.9 85 7 32 24.1 101.63   -13 LegendNANA
02:00 Legend Double Dagger -5.1 -7.2 85 7 32 24.1 101.61   -13 LegendNANA
03:00 Legend Double Dagger -5.2 -7.5 84 7 32 24.1 101.57   -13 Cloudy
04:00 Legend Double Dagger -5.7 -7.8 85 7 36 24.1 101.53   -15 LegendNANA
05:00 Legend Double Dagger -5.4 -7.9 83 7 32 24.1 101.51   -14 LegendNANA
06:00 Legend Double Dagger -5.4 -7.5 85 7 30 24.1 101.51   -14 Mostly Cloudy
07:00 Legend Double Dagger -5.3 -7.9 82 7 30 32.2 101.50   -13 LegendNANA
08:00 Legend Double Dagger -5.1 -8.0 80 7 32 32.2 101.46   -13 LegendNANA
09:00 Legend Double Dagger -5.2 -8.0 81 6 32 32.2 101.46   -13 Cloudy
10:00 Legend Double Dagger -4.8 -7.4 82 6 36 32.2 101.41   -13 LegendNANA
11:00 Legend Double Dagger -4.2 -6.7 83 7 34 32.2 101.35   -12 LegendNANA
12:00 Legend Double Dagger -3.7 -6.2 83 6 34 24.1 101.30   -12 Cloudy
13:00 Legend Double Dagger -3.1 -5.4 84 7 32 16.1 101.27   -11 Snow
14:00 Legend Double Dagger -3.1 -5.0 87 6 37 2.4 101.22   -11 Snow,Fog
15:00 Legend Double Dagger -2.8 -4.7 87 6 35 3.2 101.16   -11 Snow,Fog
16:00 Legend Double Dagger -2.8 -4.4 89 6 34 3.2 101.16   -11 Snow,Fog,Blowing Snow
17:00 Legend Double Dagger -2.8 -4.2 90 7 36 3.2 101.13   -11 Snow,Fog,Blowing Snow
18:00 Legend Double Dagger -2.7 -4.3 89 7 36 3.2 101.11   -11 Snow,Fog,Blowing Snow
19:00 Legend Double Dagger -2.8 -4.4 89 7 34 8.1 101.10   -11 Snow,Fog,Blowing Snow
20:00 Legend Double Dagger -2.7 -4.9 85 6 36 16.1 101.07   -11 Snow,Blowing Snow
21:00 Legend Double Dagger -2.9 -5.2 84 6 35 24.1 101.08   -11 Cloudy
22:00 Legend Double Dagger -3.2 -5.7 83 6 32 24.1 101.07   -11 LegendNANA
23:00 Legend Double Dagger -3.2 -5.7 83 6 30 24.1 101.07   -11 LegendNANA

Notes on Data Quality.

Legend

  • E = Estimated
  • M = Missing
  • NA = Not Available
  • ‡ = Partner data that is not subject to review by the National Climate Archives
Date modified: